Time,TemperatureF,DewpointF,PressureIn,WindDirection,WindDirectionDegrees,WindSpeedMPH,WindSpeedGustMPH,Humidity,HourlyPrecipIn,Conditions,Clouds,dailyrainin,SoftwareType,DateUTC
2013-07-05 00:01:00,81.2,72.5,30.09,SW,218,1.0,4.0,75,0.00,,---,0.00,VWS V14.00,2013-07-05 04:01:00,
2013-07-05 00:02:00,81.2,72.5,30.09,SSW,211,1.0,4.0,75,0.00,,---,0.00,VWS V14.00,2013-07-05 04:02:00,
2013-07-05 00:03:00,81.2,72.5,30.09,SSE,167,2.0,2.0,75,0.00,,---,0.00,VWS V14.00,2013-07-05 04:03:00,
2013-07-05 00:08:00,81.0,72.7,30.09,SSW,207,2.0,3.0,76,0.00,,---,0.00,VWS V14.00,2013-07-05 04:08:00,
2013-07-05 00:13:00,80.9,72.6,30.09,SW,225,4.0,5.0,76,0.00,,---,0.00,VWS V14.00,2013-07-05 04:13:00,
2013-07-05 00:18:00,80.9,72.6,30.09,SW,233,3.0,3.0,76,0.00,,---,0.00,VWS V14.00,2013-07-05 04:18:00,
2013-07-05 00:23:00,80.8,72.5,30.09,WSW,239,1.0,6.0,76,0.00,,---,0.00,VWS V14.00,2013-07-05 04:23:00,
2013-07-05 00:29:00,80.7,72.8,30.09,WNW,289,0.0,1.0,77,0.00,,---,0.00,VWS V14.00,2013-07-05 04:29:00,
2013-07-05 00:34:00,80.5,72.6,30.09,WNW,298,0.0,5.0,77,0.00,,---,0.00,VWS V14.00,2013-07-05 04:34:00,
2013-07-05 00:39:00,80.4,72.5,30.09,SSW,200,0.0,0.0,77,0.00,,---,0.00,VWS V14.00,2013-07-05 04:39:00,
2013-07-05 00:44:00,80.2,72.7,30.09,WSW,242,0.0,1.0,78,0.00,,---,0.00,VWS V14.00,2013-07-05 04:44:00,
2013-07-05 00:49:00,80.0,72.5,30.09,North,11,0.0,1.0,78,0.00,,---,0.00,VWS V14.00,2013-07-05 04:49:00,
2013-07-05 00:54:00,79.9,72.4,30.09,SSW,200,1.0,4.0,78,0.00,,---,0.00,VWS V14.00,2013-07-05 04:54:00,
2013-07-05 00:59:00,79.8,72.7,30.10,South,191,3.0,3.0,79,0.00,,---,0.00,VWS V14.00,2013-07-05 04:59:00,
2013-07-05 01:04:00,79.7,72.6,30.09,SSW,211,2.0,3.0,79,0.00,,---,0.00,VWS V14.00,2013-07-05 05:04:00,
2013-07-05 01:09:00,79.5,72.4,30.09,SW,226,0.0,3.0,79,0.00,,---,0.00,VWS V14.00,2013-07-05 05:09:00,
2013-07-05 01:14:00,79.3,72.6,30.09,SW,222,2.0,3.0,80,0.00,,---,0.00,VWS V14.00,2013-07-05 05:14:00,
2013-07-05 01:19:00,79.2,72.5,30.09,SSW,204,1.0,2.0,80,0.00,,---,0.00,VWS V14.00,2013-07-05 05:19:00,
2013-07-05 01:24:00,79.1,72.4,30.09,SSW,204,0.0,0.0,80,0.00,,---,0.00,VWS V14.00,2013-07-05 05:24:00,
2013-07-05 01:30:00,78.8,72.5,30.09,SW,229,0.0,0.0,81,0.00,,---,0.00,VWS V14.00,2013-07-05 05:30:00,
2013-07-05 01:35:00,78.5,72.2,30.09,SW,229,0.0,1.0,81,0.00,,---,0.00,VWS V14.00,2013-07-05 05:35:00,
2013-07-05 01:40:00,78.4,72.4,30.09,SW,233,1.0,1.0,82,0.00,,---,0.00,VWS V14.00,2013-07-05 05:40:00,
2013-07-05 01:45:00,78.5,72.6,30.09,WSW,242,0.0,3.0,82,0.00,,---,0.00,VWS V14.00,2013-07-05 05:45:00,
2013-07-05 01:50:00,78.4,72.4,30.09,South,173,1.0,2.0,82,0.00,,---,0.00,VWS V14.00,2013-07-05 05:50:00,
2013-07-05 01:55:00,78.3,72.4,30.09,West,276,2.0,3.0,82,0.00,,---,0.00,VWS V14.00,2013-07-05 05:55:00,
2013-07-05 02:00:00,78.3,72.4,30.09,SW,214,0.0,2.0,82,0.00,,---,0.00,VWS V14.00,2013-07-05 06:00:00,
2013-07-05 02:05:00,78.3,72.4,30.09,SSW,211,0.0,1.0,82,0.00,,---,0.00,VWS V14.00,2013-07-05 06:05:00,
2013-07-05 02:10:00,78.1,72.5,30.09,SW,229,0.0,0.0,83,0.00,,---,0.00,VWS V14.00,2013-07-05 06:10:00,
2013-07-05 02:15:00,77.9,72.3,30.09,SW,229,0.0,0.0,83,0.00,,---,0.00,VWS V14.00,2013-07-05 06:15:00,
2013-07-05 02:21:00,77.8,72.6,30.09,WSW,248,0.0,0.0,84,0.00,,---,0.00,VWS V14.00,2013-07-05 06:21:00,
2013-07-05 02:26:00,77.9,72.3,30.09,WNW,284,1.0,1.0,83,0.00,,---,0.00,VWS V14.00,2013-07-05 06:26:00,
2013-07-05 02:31:00,77.9,72.3,30.09,SSW,212,0.0,2.0,83,0.00,,---,0.00,VWS V14.00,2013-07-05 06:31:00,
2013-07-05 02:36:00,77.9,72.7,30.09,WSW,258,0.0,3.0,84,0.00,,---,0.00,VWS V14.00,2013-07-05 06:36:00,
2013-07-05 02:41:00,77.8,72.6,30.09,WSW,244,1.0,3.0,84,0.00,,---,0.00,VWS V14.00,2013-07-05 06:41:00,
2013-07-05 02:46:00,77.9,72.7,30.09,WSW,250,1.0,3.0,84,0.00,,---,0.00,VWS V14.00,2013-07-05 06:46:00,
2013-07-05 02:51:00,77.9,72.7,30.09,SW,229,1.0,1.0,84,0.00,,---,0.00,VWS V14.00,2013-07-05 06:51:00,
2013-07-05 02:56:00,77.7,72.5,30.09,West,264,0.0,1.0,84,0.00,,---,0.00,VWS V14.00,2013-07-05 06:56:00,
2013-07-05 03:01:00,77.7,72.8,30.09,SSW,211,2.0,5.0,85,0.00,,---,0.00,VWS V14.00,2013-07-05 07:01:00,
2013-07-05 03:06:00,77.6,72.7,30.09,SW,224,3.0,5.0,85,0.00,,---,0.00,VWS V14.00,2013-07-05 07:06:00,
2013-07-05 03:11:00,77.6,72.7,30.09,SSW,201,2.0,6.0,85,0.00,,---,0.00,VWS V14.00,2013-07-05 07:11:00,
2013-07-05 03:17:00,77.6,72.7,30.09,SSW,204,2.0,4.0,85,0.00,,---,0.00,VWS V14.00,2013-07-05 07:17:00,
2013-07-05 03:22:00,77.5,72.6,30.08,SSW,204,2.0,5.0,85,0.00,,---,0.00,VWS V14.00,2013-07-05 07:22:00,
2013-07-05 03:27:00,77.5,72.6,30.08,South,172,1.0,3.0,85,0.00,,---,0.00,VWS V14.00,2013-07-05 07:27:00,
2013-07-05 03:32:00,77.4,72.5,30.09,WNW,284,0.0,5.0,85,0.00,,---,0.00,VWS V14.00,2013-07-05 07:32:00,
2013-07-05 03:37:00,77.3,72.8,30.09,SW,235,0.0,2.0,86,0.00,,---,0.00,VWS V14.00,2013-07-05 07:37:00,
2013-07-05 03:42:00,77.1,72.6,30.09,West,280,0.0,0.0,86,0.00,,---,0.00,VWS V14.00,2013-07-05 07:42:00,
2013-07-05 03:47:00,77.0,72.8,30.09,West,280,0.0,3.0,87,0.00,,---,0.00,VWS V14.00,2013-07-05 07:47:00,
2013-07-05 03:52:00,76.9,72.7,30.09,WNW,283,0.0,2.0,87,0.00,,---,0.00,VWS V14.00,2013-07-05 07:52:00,
2013-07-05 03:57:00,76.8,72.6,30.09,WNW,295,0.0,1.0,87,0.00,,---,0.00,VWS V14.00,2013-07-05 07:57:00,
2013-07-05 04:02:00,76.7,72.5,30.09,SW,235,0.0,0.0,87,0.00,,---,0.00,VWS V14.00,2013-07-05 08:02:00,
2013-07-05 04:08:00,76.6,72.4,30.09,West,280,0.0,4.0,87,0.00,,---,0.00,VWS V14.00,2013-07-05 08:08:00,
2013-07-05 04:13:00,76.4,72.2,30.08,WSW,242,0.0,0.0,87,0.00,,---,0.00,VWS V14.00,2013-07-05 08:13:00,
2013-07-05 04:18:00,76.4,72.6,30.09,WNW,285,0.0,2.0,88,0.00,,---,0.00,VWS V14.00,2013-07-05 08:18:00,
2013-07-05 04:23:00,76.4,72.6,30.08,WNW,284,0.0,2.0,88,0.00,,---,0.00,VWS V14.00,2013-07-05 08:23:00,
2013-07-05 04:28:00,76.3,72.5,30.09,WSW,242,1.0,4.0,88,0.00,,---,0.00,VWS V14.00,2013-07-05 08:28:00,
2013-07-05 04:33:00,76.2,72.4,30.09,WSW,255,3.0,4.0,88,0.00,,---,0.00,VWS V14.00,2013-07-05 08:33:00,
2013-07-05 04:38:00,76.2,72.4,30.09,WNW,291,0.0,4.0,88,0.00,,---,0.00,VWS V14.00,2013-07-05 08:38:00,
2013-07-05 04:43:00,76.2,72.4,30.09,SW,218,0.0,2.0,88,0.00,,---,0.00,VWS V14.00,2013-07-05 08:43:00,
2013-07-05 04:48:00,76.0,72.2,30.09,SW,217,0.0,0.0,88,0.00,,---,0.00,VWS V14.00,2013-07-05 08:48:00,
2013-07-05 04:53:00,75.9,72.4,30.09,NW,308,2.0,2.0,89,0.00,,---,0.00,VWS V14.00,2013-07-05 08:53:00,
2013-07-05 04:58:00,75.9,72.4,30.09,SW,233,0.0,3.0,89,0.00,,---,0.00,VWS V14.00,2013-07-05 08:58:00,
2013-07-05 05:03:00,75.7,72.2,30.09,WNW,294,0.0,0.0,89,0.00,,---,0.00,VWS V14.00,2013-07-05 09:03:00,
2013-07-05 05:08:00,75.6,72.1,30.09,West,273,2.0,2.0,89,0.00,,---,0.00,VWS V14.00,2013-07-05 09:08:00,
2013-07-05 05:14:00,75.6,72.1,30.09,SSW,197,1.0,2.0,89,0.00,,---,0.00,VWS V14.00,2013-07-05 09:14:00,
2013-07-05 05:19:00,75.6,72.1,30.09,WSW,256,0.0,0.0,89,0.00,,---,0.00,VWS V14.00,2013-07-05 09:19:00,
2013-07-05 05:24:00,75.5,72.0,30.09,WSW,255,0.0,0.0,89,0.00,,---,0.00,VWS V14.00,2013-07-05 09:24:00,
2013-07-05 05:29:00,75.4,71.9,30.10,WSW,253,0.0,0.0,89,0.00,,---,0.00,VWS V14.00,2013-07-05 09:29:00,
2013-07-05 05:34:00,75.3,72.2,30.10,SSW,206,0.0,0.0,90,0.00,,---,0.00,VWS V14.00,2013-07-05 09:34:00,
2013-07-05 05:40:00,75.3,72.2,30.10,SSW,203,0.0,0.0,90,0.00,,---,0.00,VWS V14.00,2013-07-05 09:40:00,
2013-07-05 05:45:00,75.3,72.2,30.10,West,264,0.0,0.0,90,0.00,,---,0.00,VWS V14.00,2013-07-05 09:45:00,
2013-07-05 05:50:00,75.3,72.2,30.10,WSW,245,0.0,0.0,90,0.00,,---,0.00,VWS V14.00,2013-07-05 09:50:00,
2013-07-05 05:55:00,75.4,72.3,30.10,WNW,284,0.0,2.0,90,0.00,,---,0.00,VWS V14.00,2013-07-05 09:55:00,
2013-07-05 06:00:00,75.5,72.4,30.10,SSW,197,0.0,2.0,90,0.00,,---,0.00,VWS V14.00,2013-07-05 10:00:00,
2013-07-05 06:05:00,75.7,72.2,30.10,SSW,197,0.0,0.0,89,0.00,,---,0.00,VWS V14.00,2013-07-05 10:05:00,
2013-07-05 06:10:00,76.0,72.5,30.10,SW,230,0.0,0.0,89,0.00,,---,0.00,VWS V14.00,2013-07-05 10:10:00,
2013-07-05 06:16:00,76.3,72.5,30.10,SW,231,0.0,0.0,88,0.00,,---,0.00,VWS V14.00,2013-07-05 10:16:00,
2013-07-05 06:21:00,76.7,72.9,30.10,SW,225,1.0,1.0,88,0.00,,---,0.00,VWS V14.00,2013-07-05 10:21:00,
2013-07-05 06:27:00,77.0,72.8,30.10,SW,221,0.0,3.0,87,0.00,,---,0.00,VWS V14.00,2013-07-05 10:27:00,
2013-07-05 06:32:00,77.3,73.1,30.10,South,172,1.0,2.0,87,0.00,,---,0.00,VWS V14.00,2013-07-05 10:32:00,
2013-07-05 06:37:00,77.6,73.1,30.10,SSW,205,1.0,4.0,86,0.00,,---,0.00,VWS V14.00,2013-07-05 10:37:00,
2013-07-05 06:42:00,77.8,73.3,30.10,WSW,243,2.0,4.0,86,0.00,,---,0.00,VWS V14.00,2013-07-05 10:42:00,
2013-07-05 06:48:00,78.1,73.6,30.10,WSW,246,0.0,4.0,86,0.00,,---,0.00,VWS V14.00,2013-07-05 10:48:00,
2013-07-05 06:53:00,78.3,73.4,30.10,SSW,201,0.0,3.0,85,0.00,,---,0.00,VWS V14.00,2013-07-05 10:53:00,
2013-07-05 06:58:00,78.6,73.7,30.10,SE,145,1.0,2.0,85,0.00,,---,0.00,VWS V14.00,2013-07-05 10:58:00,
2013-07-05 07:03:00,78.6,73.7,30.10,NW,309,0.0,6.0,85,0.00,,---,0.00,VWS V14.00,2013-07-05 11:03:00,
2013-07-05 07:08:00,78.8,73.9,30.10,West,263,0.0,4.0,85,0.00,,---,0.00,VWS V14.00,2013-07-05 11:08:00,
2013-07-05 07:13:00,78.7,73.8,30.10,WSW,250,1.0,5.0,85,0.00,,---,0.00,VWS V14.00,2013-07-05 11:13:00,
2013-07-05 07:18:00,78.7,73.8,30.10,SW,214,2.0,6.0,85,0.00,,---,0.00,VWS V14.00,2013-07-05 11:18:00,
2013-07-05 07:23:00,78.8,73.6,30.10,SSE,148,2.0,5.0,84,0.00,,---,0.00,VWS V14.00,2013-07-05 11:23:00,
2013-07-05 07:28:00,79.1,73.8,30.11,SW,232,2.0,3.0,84,0.00,,---,0.00,VWS V14.00,2013-07-05 11:28:00,
2013-07-05 07:34:00,79.0,73.4,30.11,WNW,296,2.0,5.0,83,0.00,,---,0.00,VWS V14.00,2013-07-05 11:34:00,
2013-07-05 07:39:00,79.4,74.2,30.11,WNW,285,3.0,5.0,84,0.00,,---,0.00,VWS V14.00,2013-07-05 11:39:00,
2013-07-05 07:44:00,79.6,73.6,30.11,West,281,4.0,10.0,82,0.00,,---,0.00,VWS V14.00,2013-07-05 11:44:00,
2013-07-05 07:49:00,79.8,73.8,30.11,West,281,2.0,5.0,82,0.00,,---,0.00,VWS V14.00,2013-07-05 11:49:00,
2013-07-05 07:54:00,80.0,73.7,30.11,WNW,297,2.0,4.0,81,0.00,,---,0.00,VWS V14.00,2013-07-05 11:54:00,
2013-07-05 07:59:00,80.3,74.3,30.11,NW,319,3.0,3.0,82,0.00,,---,0.00,VWS V14.00,2013-07-05 11:59:00,
2013-07-05 08:05:00,80.5,74.1,30.11,WNW,294,1.0,4.0,81,0.00,,---,0.00,VWS V14.00,2013-07-05 12:05:00,
2013-07-05 08:10:00,80.5,73.8,30.11,SSE,158,3.0,9.0,80,0.00,,---,0.00,VWS V14.00,2013-07-05 12:10:00,
2013-07-05 08:15:00,80.6,73.9,30.11,SW,229,2.0,5.0,80,0.00,,---,0.00,VWS V14.00,2013-07-05 12:15:00,
2013-07-05 08:21:00,81.0,74.2,30.11,SW,219,1.0,6.0,80,0.00,,---,0.00,VWS V14.00,2013-07-05 12:21:00,
2013-07-05 08:26:00,81.3,74.5,30.11,SW,229,2.0,3.0,80,0.00,,---,0.00,VWS V14.00,2013-07-05 12:26:00,
2013-07-05 08:31:00,81.9,74.8,30.11,NW,310,0.0,8.0,79,0.00,,---,0.00,VWS V14.00,2013-07-05 12:31:00,
2013-07-05 08:36:00,81.9,74.4,30.11,SSW,209,2.0,7.0,78,0.00,,---,0.00,VWS V14.00,2013-07-05 12:36:00,
2013-07-05 08:42:00,82.2,74.7,30.10,West,259,2.0,6.0,78,0.00,,---,0.00,VWS V14.00,2013-07-05 12:42:00,
2013-07-05 08:47:00,82.8,74.9,30.10,WNW,302,1.0,4.0,77,0.00,,---,0.00,VWS V14.00,2013-07-05 12:47:00,
2013-07-05 08:52:00,82.7,74.4,30.10,SSW,205,2.0,6.0,76,0.00,,---,0.00,VWS V14.00,2013-07-05 12:52:00,
2013-07-05 08:58:00,82.7,74.4,30.10,WSW,251,1.0,7.0,76,0.00,,---,0.00,VWS V14.00,2013-07-05 12:58:00,
2013-07-05 09:03:00,83.3,74.9,30.10,WSW,243,1.0,8.0,76,0.00,,---,0.00,VWS V14.00,2013-07-05 13:03:00,
2013-07-05 09:08:00,83.8,75.0,30.10,WSW,250,2.0,5.0,75,0.00,,---,0.00,VWS V14.00,2013-07-05 13:08:00,
2013-07-05 09:13:00,84.3,75.1,30.10,WNW,297,3.0,6.0,74,0.00,,---,0.00,VWS V14.00,2013-07-05 13:13:00,
2013-07-05 09:18:00,84.3,75.1,30.10,WSW,252,0.0,6.0,74,0.00,,---,0.00,VWS V14.00,2013-07-05 13:18:00,
2013-07-05 09:23:00,84.9,74.9,30.09,South,176,4.0,6.0,72,0.00,,---,0.00,VWS V14.00,2013-07-05 13:23:00,
2013-07-05 09:28:00,84.5,74.9,30.09,SW,226,2.0,2.0,73,0.00,,---,0.00,VWS V14.00,2013-07-05 13:28:00,
2013-07-05 09:33:00,84.6,75.0,30.09,NW,304,5.0,6.0,73,0.00,,---,0.00,VWS V14.00,2013-07-05 13:33:00,
2013-07-05 09:38:00,84.8,75.2,30.09,SW,236,2.0,4.0,73,0.00,,---,0.00,VWS V14.00,2013-07-05 13:38:00,
2013-07-05 09:44:00,85.6,75.5,30.09,WNW,293,1.0,2.0,72,0.00,,---,0.00,VWS V14.00,2013-07-05 13:44:00,
2013-07-05 09:50:00,85.6,75.1,30.09,NW,304,2.0,4.0,71,0.00,,---,0.00,VWS V14.00,2013-07-05 13:50:00,
2013-07-05 09:55:00,85.9,75.0,30.09,West,262,7.0,7.0,70,0.00,,---,0.00,VWS V14.00,2013-07-05 13:55:00,
2013-07-05 10:00:00,86.2,75.3,30.09,WSW,239,4.0,7.0,70,0.00,,---,0.00,VWS V14.00,2013-07-05 14:00:00,
2013-07-05 10:05:00,86.5,75.1,30.09,WSW,247,2.0,5.0,69,0.00,,---,0.00,VWS V14.00,2013-07-05 14:05:00,
2013-07-05 10:10:00,86.9,75.1,30.09,SSW,208,2.0,6.0,68,0.00,,---,0.00,VWS V14.00,2013-07-05 14:10:00,
2013-07-05 10:16:00,87.0,74.7,30.09,NNW,332,2.0,6.0,67,0.00,,---,0.00,VWS V14.00,2013-07-05 14:16:00,
2013-07-05 10:21:00,87.6,75.7,30.09,WSW,257,3.0,8.0,68,0.00,,---,0.00,VWS V14.00,2013-07-05 14:21:00,
2013-07-05 10:27:00,87.2,74.5,30.09,SW,233,1.0,9.0,66,0.00,,---,0.00,VWS V14.00,2013-07-05 14:27:00,
2013-07-05 10:32:00,87.2,74.5,30.09,West,269,5.0,8.0,66,0.00,,---,0.00,VWS V14.00,2013-07-05 14:32:00,
2013-07-05 10:38:00,87.1,74.8,30.09,SE,131,1.0,2.0,67,0.00,,---,0.00,VWS V14.00,2013-07-05 14:38:00,
2013-07-05 10:43:00,87.5,75.2,30.08,SSW,211,8.0,8.0,67,0.00,,---,0.00,VWS V14.00,2013-07-05 14:43:00,
2013-07-05 10:49:00,87.2,74.9,30.08,WNW,290,1.0,4.0,67,0.00,,---,0.00,VWS V14.00,2013-07-05 14:49:00,
2013-07-05 10:54:00,88.0,74.8,30.08,WSW,243,8.0,8.0,65,0.00,,---,0.00,VWS V14.00,2013-07-05 14:54:00,
2013-07-05 10:59:00,88.2,75.0,30.08,South,190,2.0,9.0,65,0.00,,---,0.00,VWS V14.00,2013-07-05 14:59:00,
2013-07-05 11:04:00,88.1,74.9,30.08,South,174,2.0,5.0,65,0.00,,---,0.00,VWS V14.00,2013-07-05 15:04:00,
2013-07-05 11:09:00,88.8,75.1,30.08,SW,215,2.0,2.0,64,0.00,,---,0.00,VWS V14.00,2013-07-05 15:09:00,
2013-07-05 11:15:00,89.4,74.7,30.08,West,260,2.0,7.0,62,0.00,,---,0.00,VWS V14.00,2013-07-05 15:15:00,
2013-07-05 11:20:00,89.1,74.9,30.08,West,278,3.0,4.0,63,0.00,,---,0.00,VWS V14.00,2013-07-05 15:20:00,
2013-07-05 11:25:00,89.5,74.3,30.08,WNW,290,2.0,7.0,61,0.00,,---,0.00,VWS V14.00,2013-07-05 15:25:00,
2013-07-05 11:30:00,89.8,74.6,30.08,NNE,18,1.0,3.0,61,0.00,,---,0.00,VWS V14.00,2013-07-05 15:30:00,
2013-07-05 11:32:00,90.2,74.9,30.08,WNW,292,4.0,6.0,61,0.00,,---,0.00,VWS V14.00,2013-07-05 15:32:00,
2013-07-05 11:37:00,90.5,74.7,30.07,SSW,208,3.0,7.0,60,0.00,,---,0.00,VWS V14.00,2013-07-05 15:37:00,
2013-07-05 11:42:00,90.8,74.5,30.07,WSW,239,2.0,6.0,59,0.00,,---,0.00,VWS V14.00,2013-07-05 15:42:00,
2013-07-05 11:47:00,90.3,75.0,30.07,South,176,2.0,6.0,61,0.00,,---,0.00,VWS V14.00,2013-07-05 15:47:00,
2013-07-05 11:49:00,90.0,74.3,30.07,SSW,194,3.0,11.0,60,0.00,,---,0.00,VWS V14.00,2013-07-05 15:49:00,
2013-07-05 11:55:00,90.2,74.4,30.07,WNW,297,1.0,4.0,60,0.00,,---,0.00,VWS V14.00,2013-07-05 15:55:00,
2013-07-05 12:00:00,91.1,74.8,30.07,WNW,285,1.0,4.0,59,0.00,,---,0.00,VWS V14.00,2013-07-05 16:00:00,
2013-07-05 12:05:00,91.4,74.6,30.07,SSW,211,7.0,9.0,58,0.00,,---,0.00,VWS V14.00,2013-07-05 16:05:00,
2013-07-05 12:10:00,91.0,74.2,30.07,WSW,252,6.0,10.0,58,0.00,,---,0.00,VWS V14.00,2013-07-05 16:10:00,
2013-07-05 12:15:00,91.3,74.5,30.07,NNW,328,1.0,4.0,58,0.00,,---,0.00,VWS V14.00,2013-07-05 16:15:00,
2013-07-05 12:20:00,91.0,73.7,30.07,WSW,248,4.0,5.0,57,0.00,,---,0.00,VWS V14.00,2013-07-05 16:20:00,
2013-07-05 12:25:00,90.2,74.4,30.07,NW,316,7.0,11.0,60,0.00,,---,0.00,VWS V14.00,2013-07-05 16:25:00,
2013-07-05 12:30:00,90.2,73.9,30.07,WSW,238,1.0,7.0,59,0.00,,---,0.00,VWS V14.00,2013-07-05 16:30:00,
2013-07-05 12:35:00,90.7,73.9,30.07,WNW,302,6.0,6.0,58,0.00,,---,0.00,VWS V14.00,2013-07-05 16:35:00,
2013-07-05 12:40:00,90.4,73.6,30.07,WNW,294,5.0,8.0,58,0.00,,---,0.00,VWS V14.00,2013-07-05 16:40:00,
2013-07-05 12:45:00,90.5,74.2,30.06,South,176,5.0,7.0,59,0.00,,---,0.00,VWS V14.00,2013-07-05 16:45:00,
2013-07-05 12:51:00,91.1,73.8,30.07,NW,314,2.0,7.0,57,0.00,,---,0.00,VWS V14.00,2013-07-05 16:51:00,
2013-07-05 12:56:00,90.9,73.0,30.06,South,169,2.0,9.0,56,0.00,,---,0.00,VWS V14.00,2013-07-05 16:56:00,
2013-07-05 13:01:00,91.3,73.4,30.06,WSW,240,10.0,10.0,56,0.00,,---,0.00,VWS V14.00,2013-07-05 17:01:00,
2013-07-05 13:06:00,91.9,72.9,30.06,SW,226,9.0,13.0,54,0.00,,---,0.00,VWS V14.00,2013-07-05 17:06:00,
2013-07-05 13:11:00,91.3,72.3,30.06,NW,315,7.0,14.0,54,0.00,,---,0.00,VWS V14.00,2013-07-05 17:11:00,
2013-07-05 13:16:00,90.6,73.3,30.06,West,276,3.0,7.0,57,0.00,,---,0.00,VWS V14.00,2013-07-05 17:16:00,
2013-07-05 13:21:00,91.1,72.7,30.06,SW,228,4.0,8.0,55,0.00,,---,0.00,VWS V14.00,2013-07-05 17:21:00,
2013-07-05 13:26:00,91.7,72.7,30.06,SW,229,2.0,13.0,54,0.00,,---,0.00,VWS V14.00,2013-07-05 17:26:00,
2013-07-05 13:31:00,92.2,72.6,30.05,WNW,295,4.0,11.0,53,0.00,,---,0.00,VWS V14.00,2013-07-05 17:31:00,
2013-07-05 13:36:00,92.0,73.0,30.05,NNW,346,1.0,7.0,54,0.00,,---,0.00,VWS V14.00,2013-07-05 17:36:00,
2013-07-05 13:41:00,92.2,73.2,30.05,West,270,3.0,10.0,54,0.00,,---,0.00,VWS V14.00,2013-07-05 17:41:00,
2013-07-05 13:47:00,93.1,72.9,30.05,SSW,208,2.0,6.0,52,0.00,,---,0.00,VWS V14.00,2013-07-05 17:47:00,
2013-07-05 13:52:00,93.8,72.9,30.05,SSW,197,2.0,7.0,51,0.00,,---,0.00,VWS V14.00,2013-07-05 17:52:00,
2013-07-05 13:57:00,93.7,72.3,30.05,West,271,5.0,8.0,50,0.00,,---,0.00,VWS V14.00,2013-07-05 17:57:00,
2013-07-05 14:02:00,93.8,72.4,30.04,WSW,245,2.0,11.0,50,0.00,,---,0.00,VWS V14.00,2013-07-05 18:02:00,
2013-07-05 14:07:00,93.7,72.3,30.04,SSW,194,3.0,7.0,50,0.00,,---,0.00,VWS V14.00,2013-07-05 18:07:00,
2013-07-05 14:12:00,94.2,72.7,30.04,SSE,167,2.0,9.0,50,0.00,,---,0.00,VWS V14.00,2013-07-05 18:12:00,
2013-07-05 14:17:00,94.1,72.0,30.04,WSW,249,2.0,7.0,49,0.00,,---,0.00,VWS V14.00,2013-07-05 18:17:00,
2013-07-05 14:22:00,93.3,71.9,30.04,SW,222,2.0,7.0,50,0.00,,---,0.00,VWS V14.00,2013-07-05 18:22:00,
2013-07-05 14:27:00,93.5,72.1,30.04,WNW,291,4.0,9.0,50,0.00,,---,0.00,VWS V14.00,2013-07-05 18:27:00,
2013-07-05 14:32:00,93.3,71.9,30.04,South,172,2.0,11.0,50,0.00,,---,0.00,VWS V14.00,2013-07-05 18:32:00,
2013-07-05 14:37:00,94.2,72.1,30.03,WNW,287,3.0,9.0,49,0.00,,---,0.00,VWS V14.00,2013-07-05 18:37:00,
2013-07-05 14:43:00,93.8,72.4,30.03,SW,219,4.0,9.0,50,0.00,,---,0.00,VWS V14.00,2013-07-05 18:43:00,
2013-07-05 14:45:00,94.0,72.5,30.03,SSW,208,3.0,8.0,50,0.00,,---,0.00,VWS V14.00,2013-07-05 18:45:00,
2013-07-05 14:50:00,94.3,72.8,30.03,WNW,292,7.0,13.0,50,0.00,,---,0.00,VWS V14.00,2013-07-05 18:50:00,
2013-07-05 14:55:00,93.9,71.8,30.03,NW,305,5.0,6.0,49,0.00,,---,0.00,VWS V14.00,2013-07-05 18:55:00,
2013-07-05 15:00:00,94.6,73.7,30.03,WNW,285,3.0,18.0,51,0.00,,---,0.00,VWS V14.00,2013-07-05 19:00:00,
2013-07-05 15:05:00,94.9,72.2,30.02,SW,228,2.0,7.0,48,0.00,,---,0.00,VWS V14.00,2013-07-05 19:05:00,
2013-07-05 15:11:00,94.7,73.2,30.03,NNE,17,1.0,5.0,50,0.00,,---,0.00,VWS V14.00,2013-07-05 19:11:00,
2013-07-05 15:16:00,95.1,72.3,30.02,SSE,166,4.0,6.0,48,0.00,,---,0.00,VWS V14.00,2013-07-05 19:16:00,
2013-07-05 15:21:00,94.4,72.3,30.02,WSW,252,2.0,4.0,49,0.00,,---,0.00,VWS V14.00,2013-07-05 19:21:00,
2013-07-05 15:26:00,94.8,71.4,30.02,SW,217,2.0,10.0,47,0.00,,---,0.00,VWS V14.00,2013-07-05 19:26:00,
2013-07-05 15:31:00,95.0,71.6,30.01,South,188,4.0,10.0,47,0.00,,---,0.00,VWS V14.00,2013-07-05 19:31:00,
2013-07-05 15:36:00,95.4,72.6,30.01,SW,229,9.0,11.0,48,0.00,,---,0.00,VWS V14.00,2013-07-05 19:36:00,
2013-07-05 15:41:00,95.0,71.6,30.01,NNW,346,1.0,13.0,47,0.00,,---,0.00,VWS V14.00,2013-07-05 19:41:00,
2013-07-05 15:46:00,95.0,72.2,30.01,SW,233,2.0,9.0,48,0.00,,---,0.00,VWS V14.00,2013-07-05 19:46:00,
2013-07-05 15:51:00,95.1,71.1,30.01,South,172,2.0,9.0,46,0.00,,---,0.00,VWS V14.00,2013-07-05 19:51:00,
2013-07-05 15:56:00,95.4,71.3,30.01,WNW,294,2.0,7.0,46,0.00,,---,0.00,VWS V14.00,2013-07-05 19:56:00,
2013-07-05 16:02:00,94.8,72.1,30.01,SW,218,3.0,11.0,48,0.00,,---,0.00,VWS V14.00,2013-07-05 20:02:00,
2013-07-05 16:07:00,95.2,73.0,30.00,WSW,243,4.0,14.0,49,0.00,,---,0.00,VWS V14.00,2013-07-05 20:07:00,
2013-07-05 16:12:00,94.9,73.4,30.00,South,179,3.0,10.0,50,0.00,,---,0.00,VWS V14.00,2013-07-05 20:12:00,
2013-07-05 16:17:00,95.4,73.2,30.00,South,174,4.0,11.0,49,0.00,,---,0.00,VWS V14.00,2013-07-05 20:17:00,
2013-07-05 16:22:00,95.3,73.1,30.00,South,177,6.0,10.0,49,0.00,,---,0.00,VWS V14.00,2013-07-05 20:22:00,
2013-07-05 16:27:00,94.8,72.7,30.00,WNW,297,2.0,13.0,49,0.00,,---,0.00,VWS V14.00,2013-07-05 20:27:00,
2013-07-05 16:32:00,94.5,72.4,30.00,ESE,119,2.0,9.0,49,0.00,,---,0.00,VWS V14.00,2013-07-05 20:32:00,
2013-07-05 16:37:00,94.1,72.0,30.00,West,262,4.0,8.0,49,0.00,,---,0.00,VWS V14.00,2013-07-05 20:37:00,
2013-07-05 16:42:00,94.0,71.9,29.99,SSW,210,4.0,11.0,49,0.00,,---,0.00,VWS V14.00,2013-07-05 20:42:00,
2013-07-05 16:47:00,94.1,71.4,29.99,South,178,6.0,13.0,48,0.00,,---,0.00,VWS V14.00,2013-07-05 20:47:00,
2013-07-05 16:53:00,94.0,71.9,29.99,SSW,205,5.0,13.0,49,0.00,,---,0.00,VWS V14.00,2013-07-05 20:53:00,
2013-07-05 16:58:00,94.6,71.9,29.99,West,274,3.0,12.0,48,0.00,,---,0.00,VWS V14.00,2013-07-05 20:58:00,
2013-07-05 17:01:00,94.6,71.9,29.99,West,274,2.0,10.0,48,0.00,,---,0.00,VWS V14.00,2013-07-05 21:01:00,
2013-07-05 17:06:00,93.5,71.5,29.99,SSW,207,1.0,8.0,49,0.00,,---,0.00,VWS V14.00,2013-07-05 21:06:00,
2013-07-05 17:11:00,93.6,72.2,29.99,SW,218,4.0,7.0,50,0.00,,---,0.00,VWS V14.00,2013-07-05 21:11:00,
2013-07-05 17:16:00,94.4,72.9,29.99,WSW,257,5.0,5.0,50,0.00,,---,0.00,VWS V14.00,2013-07-05 21:16:00,
2013-07-05 17:21:00,94.2,71.5,29.99,WSW,246,8.0,9.0,48,0.00,,---,0.00,VWS V14.00,2013-07-05 21:21:00,
2013-07-05 17:26:00,93.4,71.4,29.99,WSW,255,6.0,11.0,49,0.00,,---,0.00,VWS V14.00,2013-07-05 21:26:00,
2013-07-05 17:31:00,93.6,71.6,29.98,SW,219,2.0,12.0,49,0.00,,---,0.00,VWS V14.00,2013-07-05 21:31:00,
2013-07-05 17:37:00,93.8,71.8,29.98,SSW,199,5.0,7.0,49,0.00,,---,0.00,VWS V14.00,2013-07-05 21:37:00,
2013-07-05 17:42:00,94.1,72.0,29.98,WNW,302,1.0,6.0,49,0.00,,---,0.00,VWS V14.00,2013-07-05 21:42:00,
2013-07-05 17:47:00,93.9,72.4,29.98,SSW,195,5.0,11.0,50,0.00,,---,0.00,VWS V14.00,2013-07-05 21:47:00,
2013-07-05 17:52:00,94.0,71.9,29.98,SW,220,9.0,9.0,49,0.00,,---,0.00,VWS V14.00,2013-07-05 21:52:00,
2013-07-05 17:57:00,93.9,71.8,29.98,SW,222,2.0,8.0,49,0.00,,---,0.00,VWS V14.00,2013-07-05 21:57:00,
2013-07-05 18:02:00,94.2,72.1,29.98,WNW,301,6.0,8.0,49,0.00,,---,0.00,VWS V14.00,2013-07-05 22:02:00,
2013-07-05 18:07:00,93.8,71.8,29.98,SSE,167,1.0,10.0,49,0.00,,---,0.00,VWS V14.00,2013-07-05 22:07:00,
2013-07-05 18:08:00,93.7,72.3,29.98,South,184,4.0,10.0,50,0.00,,---,0.00,VWS V14.00,2013-07-05 22:08:00,
2013-07-05 18:13:00,93.4,70.8,29.98,West,270,6.0,9.0,48,0.00,,---,0.00,VWS V14.00,2013-07-05 22:13:00,
2013-07-05 18:18:00,93.3,71.3,29.98,SW,221,4.0,10.0,49,0.00,,---,0.00,VWS V14.00,2013-07-05 22:18:00,
2013-07-05 18:23:00,93.0,71.6,29.98,SSW,204,6.0,10.0,50,0.00,,---,0.00,VWS V14.00,2013-07-05 22:23:00,
2013-07-05 18:28:00,93.0,71.6,29.98,SW,222,3.0,12.0,50,0.00,,---,0.00,VWS V14.00,2013-07-05 22:28:00,
2013-07-05 18:33:00,93.0,71.6,29.98,SSE,158,3.0,9.0,50,0.00,,---,0.00,VWS V14.00,2013-07-05 22:33:00,
2013-07-05 18:38:00,92.7,71.3,29.97,SSW,205,3.0,9.0,50,0.00,,---,0.00,VWS V14.00,2013-07-05 22:38:00,
2013-07-05 18:43:00,92.7,71.3,29.98,SSW,208,2.0,9.0,50,0.00,,---,0.00,VWS V14.00,2013-07-05 22:43:00,
2013-07-05 18:48:00,92.6,71.3,29.98,West,271,3.0,8.0,50,0.00,,---,0.00,VWS V14.00,2013-07-05 22:48:00,
2013-07-05 18:53:00,92.4,71.7,29.97,SSW,206,5.0,9.0,51,0.00,,---,0.00,VWS V14.00,2013-07-05 22:53:00,
2013-07-05 18:58:00,92.2,72.1,29.98,NW,313,4.0,4.0,52,0.00,,---,0.00,VWS V14.00,2013-07-05 22:58:00,
2013-07-05 19:03:00,92.0,71.9,29.98,West,276,4.0,11.0,52,0.00,,---,0.00,VWS V14.00,2013-07-05 23:03:00,
2013-07-05 19:08:00,91.6,72.1,29.98,SSW,200,2.0,10.0,53,0.00,,---,0.00,VWS V14.00,2013-07-05 23:08:00,
2013-07-05 19:13:00,91.3,72.3,29.98,WSW,255,3.0,11.0,54,0.00,,---,0.00,VWS V14.00,2013-07-05 23:13:00,
2013-07-05 19:18:00,91.2,72.2,29.98,WSW,253,3.0,4.0,54,0.00,,---,0.00,VWS V14.00,2013-07-05 23:18:00,
2013-07-05 19:23:00,91.1,72.2,29.98,NNE,18,2.0,4.0,54,0.00,,---,0.00,VWS V14.00,2013-07-05 23:23:00,
2013-07-05 19:29:00,90.9,72.0,29.98,NW,311,1.0,3.0,54,0.00,,---,0.00,VWS V14.00,2013-07-05 23:29:00,
2013-07-05 19:34:00,90.9,72.0,29.98,WNW,283,5.0,8.0,54,0.00,,---,0.00,VWS V14.00,2013-07-05 23:34:00,
2013-07-05 19:39:00,90.6,71.7,29.98,SSW,207,0.0,4.0,54,0.00,,---,0.00,VWS V14.00,2013-07-05 23:39:00,
2013-07-05 19:44:00,90.6,72.2,29.98,SE,146,3.0,6.0,55,0.00,,---,0.00,VWS V14.00,2013-07-05 23:44:00,
2013-07-05 19:49:00,90.5,72.1,29.98,WNW,301,1.0,7.0,55,0.00,,---,0.00,VWS V14.00,2013-07-05 23:49:00,
2013-07-05 19:54:00,90.1,71.8,29.98,WNW,300,4.0,7.0,55,0.00,,---,0.00,VWS V14.00,2013-07-05 23:54:00,
2013-07-05 19:59:00,89.6,71.8,29.98,WSW,249,6.0,6.0,56,0.00,,---,0.00,VWS V14.00,2013-07-05 23:59:00,
2013-07-05 20:04:00,89.0,71.8,29.98,SSE,162,3.0,6.0,57,0.00,,---,0.00,VWS V14.00,2013-07-06 00:04:00,
2013-07-05 20:10:00,88.6,71.9,29.98,SSW,212,3.0,8.0,58,0.00,,---,0.00,VWS V14.00,2013-07-06 00:10:00,
2013-07-05 20:15:00,88.4,71.8,29.98,NW,311,0.0,4.0,58,0.00,,---,0.00,VWS V14.00,2013-07-06 00:15:00,
2013-07-05 20:20:00,88.1,72.0,29.98,SSW,203,2.0,4.0,59,0.00,,---,0.00,VWS V14.00,2013-07-06 00:20:00,
2013-07-05 20:25:00,87.9,71.8,29.98,SW,222,2.0,7.0,59,0.00,,---,0.00,VWS V14.00,2013-07-06 00:25:00,
2013-07-05 20:30:00,87.7,71.6,29.98,SE,131,0.0,4.0,59,0.00,,---,0.00,VWS V14.00,2013-07-06 00:30:00,
2013-07-05 20:35:00,87.5,71.4,29.98,SSW,197,2.0,4.0,59,0.00,,---,0.00,VWS V14.00,2013-07-06 00:35:00,
2013-07-05 20:40:00,87.3,71.2,29.98,South,188,3.0,3.0,59,0.00,,---,0.00,VWS V14.00,2013-07-06 00:40:00,
2013-07-05 20:45:00,87.1,71.5,29.98,SW,232,0.0,1.0,60,0.00,,---,0.00,VWS V14.00,2013-07-06 00:45:00,
2013-07-05 20:50:00,86.9,71.3,29.98,NNW,339,1.0,4.0,60,0.00,,---,0.00,VWS V14.00,2013-07-06 00:50:00,
2013-07-05 20:51:00,86.9,71.3,29.98,SE,145,1.0,4.0,60,0.00,,---,0.00,VWS V14.00,2013-07-06 00:51:00,
2013-07-05 20:56:00,86.7,71.7,29.98,NNW,340,1.0,3.0,61,0.00,,---,0.00,VWS V14.00,2013-07-06 00:56:00,
2013-07-05 20:57:00,86.7,71.7,29.98,SW,232,2.0,3.0,61,0.00,,---,0.00,VWS V14.00,2013-07-06 00:57:00,
2013-07-05 21:02:00,86.6,71.6,29.98,SW,217,1.0,7.0,61,0.00,,---,0.00,VWS V14.00,2013-07-06 01:02:00,
2013-07-05 21:07:00,86.5,71.5,29.98,ESE,113,0.0,4.0,61,0.00,,---,0.00,VWS V14.00,2013-07-06 01:07:00,
2013-07-05 21:12:00,86.4,71.4,29.99,SW,223,1.0,7.0,61,0.00,,---,0.00,VWS V14.00,2013-07-06 01:12:00,
2013-07-05 21:18:00,86.3,71.8,29.99,SW,235,2.0,4.0,62,0.00,,---,0.00,VWS V14.00,2013-07-06 01:18:00,
2013-07-05 21:23:00,86.2,71.7,29.99,SSW,208,3.0,5.0,62,0.00,,---,0.00,VWS V14.00,2013-07-06 01:23:00,
2013-07-05 21:28:00,86.1,71.6,29.99,SE,142,1.0,5.0,62,0.00,,---,0.00,VWS V14.00,2013-07-06 01:28:00,
2013-07-05 21:33:00,85.9,71.8,30.00,SSE,153,2.0,5.0,63,0.00,,---,0.00,VWS V14.00,2013-07-06 01:33:00,
2013-07-05 21:38:00,85.8,72.2,30.00,West,281,1.0,4.0,64,0.00,,---,0.00,VWS V14.00,2013-07-06 01:38:00,
2013-07-05 21:43:00,85.6,72.0,30.00,WSW,240,2.0,3.0,64,0.00,,---,0.00,VWS V14.00,2013-07-06 01:43:00,
2013-07-05 21:48:00,85.5,72.4,30.00,WNW,288,0.0,9.0,65,0.00,,---,0.00,VWS V14.00,2013-07-06 01:48:00,
2013-07-05 21:53:00,85.4,72.3,30.01,SSW,210,2.0,2.0,65,0.00,,---,0.00,VWS V14.00,2013-07-06 01:53:00,
2013-07-05 21:58:00,85.3,72.7,30.01,West,264,2.0,2.0,66,0.00,,---,0.00,VWS V14.00,2013-07-06 01:58:00,
2013-07-05 22:03:00,85.1,72.5,30.00,NE,53,1.0,1.0,66,0.00,,---,0.00,VWS V14.00,2013-07-06 02:03:00,
2013-07-05 22:08:00,84.9,72.7,30.01,NNE,12,1.0,1.0,67,0.00,,---,0.00,VWS V14.00,2013-07-06 02:08:00,
2013-07-05 22:13:00,84.8,72.6,30.01,West,269,6.0,7.0,67,0.00,,---,0.00,VWS V14.00,2013-07-06 02:13:00,
2013-07-05 22:19:00,84.8,72.6,30.01,WSW,242,0.0,0.0,67,0.00,,---,0.00,VWS V14.00,2013-07-06 02:19:00,
2013-07-05 22:20:00,84.7,72.5,30.01,ESE,110,0.0,0.0,67,0.00,,---,0.00,VWS V14.00,2013-07-06 02:20:00,
2013-07-05 22:25:00,84.5,72.8,30.01,West,270,2.0,3.0,68,0.00,,---,0.00,VWS V14.00,2013-07-06 02:25:00,
2013-07-05 22:30:00,84.5,72.8,30.01,West,276,2.0,6.0,68,0.00,,---,0.00,VWS V14.00,2013-07-06 02:30:00,
2013-07-05 22:35:00,84.4,73.1,30.01,West,269,1.0,2.0,69,0.00,,---,0.00,VWS V14.00,2013-07-06 02:35:00,
2013-07-05 22:40:00,84.2,72.9,30.01,SSW,203,1.0,2.0,69,0.00,,---,0.00,VWS V14.00,2013-07-06 02:40:00,
2013-07-05 22:45:00,84.0,73.2,30.01,WSW,250,1.0,2.0,70,0.00,,---,0.00,VWS V14.00,2013-07-06 02:45:00,
2013-07-05 22:50:00,83.9,73.1,30.01,WSW,242,1.0,4.0,70,0.00,,---,0.00,VWS V14.00,2013-07-06 02:50:00,
2013-07-05 22:55:00,83.9,73.1,30.02,NW,322,2.0,5.0,70,0.00,,---,0.00,VWS V14.00,2013-07-06 02:55:00,
2013-07-05 23:00:00,83.8,73.4,30.02,SW,214,2.0,4.0,71,0.00,,---,0.00,VWS V14.00,2013-07-06 03:00:00,
2013-07-05 23:05:00,83.6,73.2,30.02,WSW,241,1.0,3.0,71,0.00,,---,0.00,VWS V14.00,2013-07-06 03:05:00,
2013-07-05 23:11:00,83.5,73.1,30.02,West,260,3.0,6.0,71,0.00,,---,0.00,VWS V14.00,2013-07-06 03:11:00,
2013-07-05 23:16:00,83.5,73.1,30.02,NW,305,2.0,5.0,71,0.00,,---,0.00,VWS V14.00,2013-07-06 03:16:00,
2013-07-05 23:21:00,83.5,73.5,30.03,WNW,283,4.0,9.0,72,0.00,,---,0.00,VWS V14.00,2013-07-06 03:21:00,
2013-07-05 23:26:00,83.5,73.5,30.03,West,260,3.0,6.0,72,0.00,,---,0.00,VWS V14.00,2013-07-06 03:26:00,
2013-07-05 23:31:00,83.4,73.4,30.02,WSW,254,1.0,3.0,72,0.00,,---,0.00,VWS V14.00,2013-07-06 03:31:00,
2013-07-05 23:36:00,83.2,73.2,30.02,WSW,256,1.0,2.0,72,0.00,,---,0.00,VWS V14.00,2013-07-06 03:36:00,
2013-07-05 23:41:00,83.1,73.6,30.02,WNW,296,0.0,6.0,73,0.00,,---,0.00,VWS V14.00,2013-07-06 03:41:00,
2013-07-05 23:46:00,82.9,73.4,30.02,SW,232,1.0,3.0,73,0.00,,---,0.00,VWS V14.00,2013-07-06 03:46:00,
2013-07-05 23:51:00,82.7,73.6,30.02,South,179,0.0,0.0,74,0.00,,---,0.00,VWS V14.00,2013-07-06 03:51:00,
2013-07-05 23:56:00,82.7,73.6,30.02,WNW,284,1.0,6.0,74,0.00,,---,0.00,VWS V14.00,2013-07-06 03:56:00,